[[{"header":{"parameterUnit":"m.s-1","parameterCategory":1,"la1":30.2991,"la2":30.254,"lo1":-89.0895,"lo2":-89.0444,"dy":0.0017,"dx":0.0017,"nx":28,"ny":28,"refTime":"2025-07-15T09:00:00:Z","depth":0,"parameterNumber":2,"parameterNumberName":"U-component_of_WINDS"},"data":[0,0,0,0,0,0,0,0,0,0,0,0,0,0,0,0,0,0,0,0,0,0,0,0,0,0,0,0,0,0,0,0,0,0,0,0,0,0,0,0,0,0,0,0,0,0,0,0,0,0,0,0,0,0,0,0,0,0,2.4008,2.401,0,2.4161,2.4162,2.4164,2.4105,2.4101,2.4098,2.4094,2.4259,2.4267,2.4274,0,0,0,0,0,0,0,0,0,0,0,0,0,2.3676,2.3683,2.4008,2.401,2.4012,2.416,2.4163,2.4165,2.4106,2.4101,2.4097,2.4093,2.4257,2.4266,2.4275,0,0,0,0,0,0,0,0,0,0,0,0,0,2.3824,2.3685,2.4008,2.4,2.4001,2.416,2.4163,2.4165,2.4106,2.4101,2.4096,2.4091,2.4254,2.4265,2.4276,2.4454,0,0,2.4312,2.4317,0,0,0,0,0,0,0,0,2.3816,2.3836,2.4,2.4001,2.4002,2.4108,2.4106,2.4263,2.4108,2.4067,2.4094,2.4088,2.4214,2.4228,2.4269,2.4462,2.4469,2.4313,2.432,2.4325,2.4328,0,0,0,0,0,0,0,2.3806,2.3829,2.4069,2.4002,2.4004,2.3993,2.4008,2.4135,2.4169,2.407,2.4066,2.4084,2.4214,2.4258,2.4272,2.4472,2.4312,2.4323,2.433,2.4334,2.4823,2.4828,0,0,0,0,0,0,2.3794,2.3821,2.4064,2.4073,2.3894,2.4003,2.402,2.408,2.4167,2.4175,2.4089,2.4081,2.4241,2.4259,2.4278,2.4494,2.4324,2.4335,2.4342,2.4817,2.4824,2.483,0,0,0,0,0,0,2.3787,2.3816,2.4058,2.3946,2.3976,2.4014,2.4082,2.4086,2.4129,2.4181,2.4188,2.4127,2.4237,2.4262,2.4411,2.4499,2.434,2.4351,2.4809,2.4819,2.4827,2.4927,0,0,0,0,0,0,2.3777,2.3814,2.3879,2.3948,2.3982,2.4186,2.4087,2.4092,2.4149,2.414,2.4219,2.4227,2.4235,2.4394,2.4423,2.4512,2.436,2.4802,2.4814,2.4824,2.4916,2.4939,2.4958,0,0,0,0,0,2.3766,2.3902,2.3883,2.3912,2.4065,2.4191,2.4211,2.4214,2.4156,2.4224,2.4258,2.4224,2.4485,2.441,2.4442,2.4536,2.4796,2.481,2.4823,2.4907,2.4934,2.4957,0,0,0,0,0,0,2.3845,2.3911,2.389,2.4052,2.4116,2.418,2.4266,2.4243,2.4327,2.4315,2.4319,2.4338,2.4493,2.4529,2.4445,2.4715,2.4632,2.4653,2.4685,2.4711,2.4731,2.472,2.437,0,0,0,0,0,2.3881,2.3975,2.4029,2.4167,2.42,2.4228,2.4283,2.428,2.4348,2.4375,2.442,2.4489,2.4587,2.4651,2.4743,2.4921,2.494,2.5002,2.5023,2.5039,2.5058,2.5158,2.5187,2.4875,2.4875,2.4875,0,0,2.3957,2.4005,2.4064,2.4184,2.4233,2.4334,2.4251,2.436,2.4436,2.4393,2.4536,2.4572,2.465,2.4815,2.489,2.485,2.5148,2.5057,2.507,2.5079,2.5175,2.5204,2.523,2.4884,2.4883,2.4881,0,0,2.4147,2.4191,2.4312,2.4363,2.4438,2.4456,2.4485,2.4554,2.4575,2.4719,2.4689,2.4781,2.4948,2.5006,2.5057,2.5272,2.5246,2.5302,2.5411,2.5508,2.5533,2.5555,2.5633,2.5661,2.532,2.532,2.532,0,2.4232,2.4379,2.4378,2.4491,2.4546,2.4509,2.4634,2.4685,2.4788,2.4828,2.4781,2.4992,2.5042,2.5221,2.5274,2.5316,2.5352,2.5293,2.5529,2.5551,2.5571,2.5646,2.5676,2.5327,2.5326,2.5325,2.5325,0,2.4483,2.4586,2.4675,2.4773,2.4838,2.4957,2.4977,2.5044,2.5037,2.5061,2.521,2.5268,2.5373,2.5416,2.541,2.5596,2.5569,2.5526,2.5443,2.5607,2.5678,2.5707,2.5336,2.5334,2.5332,2.533,0,0,2.4726,2.4822,2.4855,2.49,2.4981,2.5063,2.5181,2.5281,2.534,2.5413,2.5515,2.5658,2.5619,2.5677,2.5679,2.5764,2.5934,2.5711,2.5713,2.5751,2.6145,2.6178,2.6211,2.5916,2.5922,2.5926,2.6139,0,2.4923,2.5127,2.5131,2.532,2.5417,2.5386,2.5489,2.5553,2.5579,2.5668,2.5699,2.5801,2.574,2.5776,2.5859,2.5895,2.6013,2.588,2.6014,2.6019,2.5996,2.6247,2.6282,2.648,2.6167,2.6171,2.6175,0,2.518,2.5259,2.5458,2.5527,2.5568,2.5661,2.5754,2.5839,2.5911,2.5925,2.5991,2.598,2.6105,2.6018,2.6192,2.6102,2.6157,2.6184,2.6192,2.6206,2.6107,2.627,2.6543,2.6573,2.6218,2.6214,2.6211,0,2.534,2.5497,2.5636,2.5675,2.5759,2.5826,2.5864,2.5931,2.5992,2.6075,2.6116,2.6213,2.6267,2.6345,2.6362,2.6297,2.6538,2.6451,2.6555,2.6555,2.6608,2.6605,2.6895,2.6642,2.6642,2.6641,2.664,0,2.5561,2.5684,2.5709,2.5795,2.5933,2.5938,2.6076,2.611,2.6171,2.6265,2.6245,2.6335,2.6351,2.6447,2.6461,2.6605,2.6629,2.6646,2.6649,2.6649,2.6647,2.6686,2.6673,2.6649,2.6647,2.6646,2.6644,0,2.5762,2.5783,2.5934,2.6001,2.6021,2.612,2.6179,2.6264,2.6288,2.6409,2.6438,2.6478,2.6588,2.6613,2.6745,2.6755,2.6926,2.6915,2.6901,2.6901,2.7004,2.6994,2.7331,2.7376,2.7092,2.7095,2.7097,0,2.5902,2.5995,2.6073,2.6134,2.6175,2.6273,2.6335,2.6345,2.6411,2.6502,2.6577,2.6685,2.6771,2.6951,2.6994,2.7096,2.7088,2.7199,2.7103,2.7101,2.7092,2.7086,2.7097,2.7217,2.722,2.7223,2.7225,0,2.6148,2.6155,2.6243,2.6337,2.6411,2.6486,2.6557,2.6609,2.6629,2.6705,2.6817,2.6884,2.7019,2.7128,2.723,2.7274,2.7255,2.7255,2.7284,2.7285,2.7274,2.7283,2.6952,2.7247,2.7245,2.7243,2.7242,2.7241,2.6324,2.6407,2.6475,2.6575,2.663,2.6697,2.678,2.6815,2.6908,2.7016,2.7018,2.7141,2.7215,2.735,2.74,2.7499,2.7464,2.7507,2.7518,2.7529,2.7539,2.7257,2.7517,2.7517,2.7516,2.7516,2.7515,0,2.6571,2.6613,2.6706,2.6805,2.6886,2.6858,2.6936,2.7006,2.7113,2.7182,2.7268,2.7399,2.7505,2.7556,2.7662,2.7732,2.7726,2.7759,2.7755,2.7766,2.7562,2.7527,2.7762,2.7762,2.7762,2.7762,2.7762,2.7762,2.6709,2.6848,2.6863,2.7031,2.7073,2.7192,2.7239,2.7303,2.7358,2.7504,2.7591,2.7623,2.7687,2.7797,2.7895,2.7907,2.7948,2.7987,2.7996,2.7805,2.778,2.7756,2.7722,2.7995,2.7995,2.8191,2.8192,2.8194]},{"header":{"parameterUnit":"m.s-1","parameterCategory":1,"la1":30.2991,"la2":30.254,"lo1":-89.0895,"lo2":-89.0444,"dy":0.0017,"dx":0.0017,"nx":28,"ny":28,"refTime":"2025-07-15T09:00:00:Z","depth":0,"parameterNumber":3,"parameterNumberName":"V-component_of_WINDS"},"data":[0,0,0,0,0,0,0,0,0,0,0,0,0,0,0,0,0,0,0,0,0,0,0,0,0,0,0,0,0,0,0,0,0,0,0,0,0,0,0,0,0,0,0,0,0,0,0,0,0,0,0,0,0,0,0,0,0,0,1.0756,1.0758,0,1.0889,1.089,1.0892,1.0858,1.0855,1.0853,1.085,1.0988,1.0994,1.1,0,0,0,0,0,0,0,0,0,0,0,0,0,1.0473,1.0478,1.0756,1.0758,1.0759,1.0889,1.089,1.0892,1.0858,1.0855,1.0852,1.0849,1.0986,1.0993,1.1,0,0,0,0,0,0,0,0,0,0,0,0,0,1.06,1.048,1.0756,1.0758,1.0759,1.0888,1.089,1.0893,1.0859,1.0855,1.0851,1.0847,1.0983,1.0992,1.1001,1.1137,0,0,1.1029,1.1033,0,0,0,0,0,0,0,0,1.0592,1.061,1.0756,1.0758,1.076,1.0853,1.0841,1.0975,1.086,1.0821,1.085,1.0845,1.0946,1.0958,1.0992,1.1143,1.1149,1.103,1.1036,1.104,1.1042,0,0,0,0,0,0,0,1.0584,1.0604,1.0809,1.0758,1.0761,1.0752,1.0766,1.0866,1.0904,1.0824,1.0822,1.0838,1.0946,1.0983,1.0995,1.1151,1.103,1.1038,1.1044,1.1047,1.1416,1.142,0,0,0,0,0,0,1.0573,1.0597,1.0804,1.0813,1.0665,1.076,1.0776,1.0827,1.0903,1.0911,1.0841,1.0836,1.0969,1.0984,1.0999,1.1161,1.104,1.1048,1.1053,1.1412,1.1417,1.1422,0,0,0,0,0,0,1.0567,1.0592,1.0799,1.0704,1.073,1.0769,1.0827,1.0832,1.0868,1.0916,1.0923,1.0872,1.0967,1.0986,1.1102,1.1165,1.1052,1.1061,1.1407,1.1413,1.1419,1.1485,0,0,0,0,0,0,1.0559,1.059,1.0642,1.0706,1.0735,1.09,1.0831,1.0837,1.0884,1.0878,1.0946,1.0954,1.0965,1.1088,1.1111,1.1175,1.1068,1.1401,1.141,1.1417,1.1478,1.1493,1.1506,0,0,0,0,0,1.0549,1.0657,1.0645,1.067,1.0801,1.0904,1.092,1.0931,1.0889,1.0941,1.0971,1.0951,1.1154,1.11,1.1126,1.1194,1.1397,1.1407,1.1417,1.1471,1.149,1.1506,0,0,0,0,0,0,1.0602,1.0665,1.0653,1.0784,1.0839,1.0898,1.0964,1.0951,1.1019,1.1011,1.1022,1.1037,1.1154,1.1186,1.1125,1.1327,1.127,1.1285,1.1302,1.1321,1.1335,1.1325,1.1075,0,0,0,0,0,1.0628,1.0706,1.0757,1.0868,1.0896,1.0925,1.097,1.0973,1.103,1.1053,1.1092,1.1148,1.1224,1.1274,1.1347,1.1482,1.1495,1.1541,1.1555,1.1567,1.158,1.165,1.1671,1.1453,1.1453,1.1453,0,0,1.0684,1.0729,1.0777,1.088,1.0922,1.1001,1.0945,1.1033,1.1091,1.1067,1.1177,1.1207,1.127,1.1395,1.1452,1.1425,1.1642,1.1579,1.1588,1.1595,1.1662,1.1683,1.1701,1.146,1.1459,1.1458,0,0,1.0827,1.0869,1.0965,1.1008,1.1072,1.109,1.1113,1.1173,1.1192,1.1303,1.1285,1.1355,1.1486,1.1531,1.1571,1.1726,1.171,1.175,1.1825,1.1894,1.1911,1.1926,1.198,1.1999,1.1763,1.1763,1.1763,0,1.0889,1.1008,1.1016,1.1104,1.1148,1.1128,1.1224,1.1265,1.135,1.1381,1.1349,1.1511,1.1553,1.1686,1.1723,1.1757,1.1782,1.1743,1.1908,1.1923,1.1938,1.1989,1.2009,1.1767,1.1767,1.1766,1.1766,0,1.108,1.1163,1.1233,1.1313,1.1365,1.1457,1.1478,1.153,1.1527,1.1549,1.166,1.1708,1.1789,1.1821,1.182,1.1953,1.1934,1.1905,1.1848,1.1962,1.2011,1.2031,1.1773,1.1772,1.1771,1.1769,0,0,1.1263,1.1343,1.1369,1.1404,1.1471,1.1535,1.1625,1.1702,1.1746,1.1804,1.1879,1.1988,1.1961,1.2006,1.201,1.207,1.2187,1.2033,1.2035,1.2059,1.2334,1.2355,1.2378,1.2176,1.218,1.2183,1.2329,0,1.141,1.1568,1.1575,1.1718,1.1794,1.1773,1.1851,1.19,1.1922,1.1988,1.2012,1.2089,1.2048,1.2074,1.2133,1.2161,1.2243,1.215,1.2245,1.2248,1.2229,1.2404,1.2427,1.2562,1.2348,1.2351,1.2353,0,1.1605,1.1667,1.1817,1.187,1.1902,1.1972,1.2042,1.2106,1.2161,1.2172,1.2221,1.2215,1.2305,1.2244,1.2367,1.2304,1.2343,1.2362,1.2367,1.2376,1.2308,1.2417,1.2606,1.2626,1.2383,1.2381,1.2379,0,1.172,1.1842,1.1946,1.1977,1.2043,1.2092,1.2122,1.2172,1.2217,1.2278,1.2307,1.2379,1.2418,1.2472,1.2485,1.2439,1.2607,1.2548,1.2618,1.2618,1.2655,1.2653,1.2852,1.2681,1.2681,1.268,1.268,0,1.1884,1.1977,1.1999,1.2063,1.2165,1.2172,1.2273,1.2299,1.2343,1.2412,1.2399,1.2463,1.2476,1.2543,1.2553,1.2652,1.2671,1.2681,1.2683,1.2682,1.2681,1.2708,1.2698,1.2686,1.2685,1.2684,1.2683,0,1.2032,1.205,1.2163,1.2214,1.2229,1.2302,1.2346,1.2407,1.2426,1.2512,1.2533,1.2562,1.264,1.2657,1.275,1.2756,1.2874,1.2867,1.2855,1.2854,1.2923,1.2916,1.3147,1.3177,1.2987,1.2988,1.299,0,1.2135,1.2205,1.2263,1.2308,1.2339,1.2411,1.2456,1.2465,1.2512,1.2577,1.263,1.2705,1.2766,1.2891,1.292,1.2989,1.2983,1.3059,1.2994,1.299,1.2983,1.2978,1.2984,1.3072,1.3074,1.3076,1.3077,0,1.2316,1.2321,1.2386,1.2454,1.2508,1.2562,1.2614,1.2651,1.2666,1.272,1.2798,1.2845,1.2937,1.3012,1.3081,1.3111,1.3096,1.3097,1.3117,1.3117,1.3107,1.3111,1.2888,1.3092,1.3091,1.3089,1.3089,1.3088,1.2444,1.2504,1.2553,1.2626,1.2665,1.2713,1.2772,1.2796,1.2862,1.2937,1.2938,1.3023,1.3072,1.3163,1.3196,1.3262,1.3238,1.3268,1.3275,1.3282,1.3287,1.3096,1.3275,1.3274,1.3274,1.3274,1.3273,0,1.2623,1.2653,1.2719,1.2791,1.2847,1.2827,1.2882,1.293,1.3005,1.3052,1.3111,1.3199,1.327,1.3304,1.3374,1.342,1.3414,1.3438,1.3434,1.3441,1.3305,1.328,1.344,1.344,1.344,1.344,1.344,1.344,1.2723,1.2823,1.2833,1.2951,1.298,1.3063,1.3095,1.3139,1.3176,1.3274,1.3333,1.3354,1.3395,1.3467,1.353,1.3538,1.3564,1.359,1.3595,1.3468,1.3451,1.3434,1.3411,1.3596,1.3596,1.3725,1.3726,1.3727]}]]